Flag for Germany Weather past 2 weeks in Laatzen, Lower Saxony, Germany

Now
64 °F

Low clouds.


Feels Like: 64 °F
Forecast: 59 / 79 °F
Wind: 1 mph from Northeast

Location: Hannover

Current Time: Jul 26, 2014 at 1:28:02 AM

Latest Report: Jul 26, 2014 at 1:00 AM


Visibility: 3 mi

Pressure: 29.94 "Hg

Humidity: 100%

Dew point: 64 °F

Location of LaatzenLocation

Historic Weather in Laatzen — Graph

°F

Laatzen temperature yesterday

Maximum temperature yesterday: 68 °F (at 6:00 PM)
Minimum temperature yesterday: 60 °F (at 4:00 AM)
Average temperature yesterday: 63 °F

Past Weeks' High & Low Weather Summary

 TemperatureHumidityPressure
High91 °F (Jul 19, 4:00 PM)100% (Jul 16, 6:00 AM)30.20 "Hg (Jul 16, 6:00 AM)
Low51 °F (Jul 12, 6:00 AM)25% (Jul 19, 4:00 PM)29.71 "Hg (Jul 13, 7:00 PM)
Average69 °F73%29.98 "Hg
* Reported Midnight between Jul 10 and Jul 11 — Midnight between Jul 25 and Jul 26, Laatzen, Weather by CustomWeather, © 2014

Note: Actual official high and low records may vary slightly from our data, if they occured in-between our weather recording intervals... More about our weather records

Advertising

Laatzen weather history for previous 24 hours

 ConditionsComfort  
Time TempWeatherWind HumidityBarometerVisibility
12:00 AM
Jul 26
63 °FLight rain. Low clouds.1 mph100%29.93 "Hg2 mi
10:00 PM
Jul 25
64 °FRain. Overcast.1 mph98%29.93 "Hg4 mi
9:00 PM65 °FLight rain. Overcast.2 mph98%29.94 "Hg7 mi
8:00 PM66 °FLight rain. Low clouds.3 mph96%29.94 "Hg7 mi
7:00 PM66 °FLight rain. Low clouds.2 mph98%29.95 "Hg2 mi
6:00 PM68 °FLight rain. Overcast.2 mph97%29.95 "Hg4 mi
5:00 PM67 °FLight rain. Low clouds.2 mph95%29.96 "Hg6 mi
4:00 PM67 °FLight rain. Low clouds.3 mph94%29.96 "Hg6 mi
3:00 PM67 °FLight rain. Low clouds.5 mph96%29.98 "Hg6 mi
2:00 PM66 °FLight rain. Low clouds.3 mph94%29.98 "Hg7 mi
1:00 PM65 °FLight rain. Low clouds.2 mph97%29.98 "Hg8 mi
12:00 PM63 °FLight rain. Low clouds.2 mph100%29.99 "Hg5 mi
11:00 AM62 °FRain. Low clouds.2 mph99%29.99 "Hg2 mi
10:00 AM62 °FRain. Low clouds.1 mph99%29.99 "Hg3 mi
9:00 AM61 °FRain. Low clouds.3 mph99%29.99 "Hg2 mi
8:00 AM60 °FRain. Low clouds.2 mph99%30.00 "Hg3 mi
7:00 AM60 °FLight rain. Overcast.3 mph99%30.00 "Hg5 mi
6:00 AM60 °FLight rain. Overcast.3 mph98%30.01 "Hg5 mi
4:00 AM60 °FLight rain. Overcast.2 mph97%30.02 "Hg9 mi
3:00 AM61 °FLight rain. Overcast.2 mph95%30.03 "Hg12 mi
2:00 AM61 °FOvercast.3 mph94%30.04 "Hg12 mi
1:00 AM61 °FOvercast.2 mph96%30.05 "Hg12 mi
Weather by CustomWeather, © 2014

See weather overviewHow to use our weather pages